Weather History for Marathon, FL

Change the Weather History Date:

Thursday, February 14, 2013

  Actual Average Record
Temperature  
Mean Temperature 78 °F 72 °F  
Max Temperature 87 °F 77 °F 87 °F (2013)
Min Temperature 68 °F 66 °F 48 °F (2006)
Degree Days  
Heating Degree Days 0 1  
Month to date heating degree days 0 10  
Since 1 July heating degree days 6 69  
Cooling Degree Days 13 7  
Month to date cooling degree days 134 93  
Year to date cooling degree days 462 274  
Growing Degree Days 27 (Base 50)    
Moisture  
Dew Point 69 °F    
Average Humidity 74    
Maximum Humidity 87    
Minimum Humidity 61    
Precipitation  
Precipitation 0.41 in 0.10 in 0.41 in (2013)
Month to date precipitation 0.41 1.08  
Year to date precipitation 0.95 2.69  
Snow  
Snow 0.00 in - - ()
Month to date snowfall 0.0  
Since 1 July snowfall 0.0  
Snow Depth 0.00 in    
Sea Level Pressure  
Sea Level Pressure 29.97 in    
Wind  
Wind Speed 6 mph (South)    
Max Wind Speed 26 mph    
Max Gust Speed 45 mph    
Visibility 9 miles    
Events Rain    
T = Trace of Precipitation, MM = Missing Value Source: NWS Daily Summary

Daily Weather History Graph

Daily Weather History Graph

Search for Another Location

Airport:

Trip Planner

Search our weather history database for the weather conditions in past years. The results will help you decide how hot, cold, wet, or windy it might be!

Date:

Astronomy

Feb. 14, 2013 Rise Set
Actual Time 6:58 AM EST 6:18 PM EST
Civil Twilight 6:35 AM EST 6:41 PM EST
Nautical Twilight 6:08 AM EST 7:08 PM EST
Astronomical Twilight 5:41 AM EST 7:35 PM EST
Moon 9:35 AM EST (2/14) 10:40 PM EST (2/14)
Length of Visible Light 12h 06m
Length of Day
11h 19m
Waxing Crescent, 21% of the Moon is Illuminated
Feb 14
Waxing Crescent
Feb 17
First Quarter
Feb 25
Full
Mar 4
Last Quarter
Mar 11
New

Hourly Weather History & Observations

Time (EST) Temp. Heat Index Dew Point Humidity Pressure Visibility Wind Dir Wind Speed Gust Speed Precip Events Conditions
12:53 AM 77.0 °F - 70.0 °F 79% 29.98 in 10.0 mi SSE 4.6 mph - N/A   Partly Cloudy
1:53 AM 75.9 °F - 69.1 °F 79% 29.96 in 10.0 mi South 4.6 mph - N/A   Clear
2:53 AM 77.0 °F - 71.1 °F 82% 29.94 in 10.0 mi South 4.6 mph - N/A   Clear
3:53 AM 75.9 °F - 71.1 °F 85% 29.94 in 9.0 mi Variable 4.6 mph - N/A   Clear
4:53 AM 75.9 °F - 71.1 °F 85% 29.93 in 9.0 mi South 3.5 mph - N/A   Partly Cloudy
5:53 AM 77.0 °F - 72.0 °F 84% 29.94 in 9.0 mi Calm Calm - N/A   Overcast
6:53 AM 75.9 °F - 70.0 °F 82% 29.96 in 10.0 mi Calm Calm - N/A   Scattered Clouds
7:53 AM 77.0 °F - 71.1 °F 82% 29.97 in 10.0 mi SSW 4.6 mph - N/A   Mostly Cloudy
8:53 AM 80.1 °F 83.8 °F 72.0 °F 76% 29.99 in 10.0 mi South 6.9 mph - N/A   Clear
9:53 AM 82.0 °F 86.7 °F 72.0 °F 71% 30.00 in 10.0 mi South 5.8 mph - N/A   Clear
10:53 AM 84.0 °F 89.6 °F 72.0 °F 67% 30.01 in 10.0 mi South 8.1 mph - N/A   Clear
11:53 AM 84.9 °F 90.7 °F 72.0 °F 65% 29.99 in 10.0 mi South 5.8 mph - N/A   Partly Cloudy
12:53 PM 86.0 °F 91.5 °F 71.1 °F 61% 29.97 in 10.0 mi SSW 6.9 mph - N/A   Partly Cloudy
1:53 PM 84.0 °F 89.0 °F 71.1 °F 65% 29.94 in 10.0 mi South 11.5 mph 17.3 mph N/A   Clear
2:53 PM 82.9 °F 87.5 °F 71.1 °F 67% 29.92 in 10.0 mi South 8.1 mph - N/A   Clear
3:53 PM 81.0 °F 84.9 °F 71.1 °F 72% 29.92 in 10.0 mi SSW 6.9 mph - N/A   Partly Cloudy
4:53 PM 80.1 °F 83.6 °F 71.1 °F 74% 29.92 in 10.0 mi South 4.6 mph - N/A   Clear
5:53 PM 79.0 °F - 71.1 °F 77% 29.93 in 10.0 mi South 4.6 mph - N/A   Mostly Cloudy
6:53 PM 78.1 °F - 71.1 °F 79% 29.93 in 10.0 mi South 3.5 mph - N/A   Scattered Clouds
7:53 PM 78.1 °F - 71.1 °F 79% 29.93 in 10.0 mi Variable 3.5 mph - N/A   Clear
8:53 PM 78.1 °F - 72.0 °F 81% 29.94 in 10.0 mi South 4.6 mph - N/A   Clear
9:19 PM 71.6 °F - 66.2 °F 83% 29.99 in 5.0 mi NNW 18.4 mph 44.9 mph 0.03 in   Haze
9:22 PM 71.6 °F - 66.2 °F 83% 29.99 in 1.8 mi NW 18.4 mph 32.2 mph 0.14 in Rain Heavy Rain
9:42 PM 69.8 °F - 66.2 °F 88% 29.99 in 3.0 mi North 11.5 mph 23.0 mph 0.39 in Rain Light Rain
9:50 PM 69.8 °F - 66.2 °F 88% 30.00 in 7.0 mi North 13.8 mph 19.6 mph 0.39 in Rain Light Rain
9:53 PM 70.0 °F - 66.0 °F 87% 30.00 in 7.0 mi North 15.0 mph 21.9 mph 0.39 in Rain Light Rain
10:03 PM 69.8 °F - 64.4 °F 83% 30.00 in 8.0 mi NNE 17.3 mph 24.2 mph 0.00 in Rain Light Rain
10:53 PM 68.0 °F - 64.0 °F 87% 29.99 in 10.0 mi NNE 17.3 mph - 0.02 in   Mostly Cloudy
11:18 PM 68.0 °F - 64.4 °F 88% 29.99 in 10.0 mi NNE 16.1 mph - N/A   Overcast
11:53 PM 68.0 °F - 64.0 °F 87% 30.00 in 10.0 mi NNE 13.8 mph - N/A   Overcast